Location: Albany
(35.0000°S, 118.0000°E)
Time: 18:02:46
(UTC-04:00)

ISS - All Passes

Search period start: 20 September 2014 00:00
Search period end: 30 September 2014 00:00
Orbit: 413 x 417 km, 51.6° (Epoch: 20 September)

Date Brightness Start Highest point End Pass type
(mag) Time Alt. Az. Time Alt. Az. Time Alt. Az.
20 Sep - 00:51:24 10° N 00:54:16 26° NE 00:57:09 10° ESE daylight
20 Sep - 02:27:59 10° W 02:30:55 27° SW 02:33:53 10° SSE daylight
20 Sep - 07:23:28 10° S 07:25:04 13° SSE 07:26:40 10° SE visible
20 Sep - 08:58:50 10° SW 09:02:15 85° SE 09:05:37 10° NE visible
21 Sep - 00:03:46 10° NNE 00:05:35 14° NE 00:07:25 10° E daylight
21 Sep - 01:38:43 10° WNW 01:41:59 46° SW 01:45:17 10° SE daylight
21 Sep - 08:10:04 10° SW 08:13:21 44° SE 08:16:36 10° ENE visible
21 Sep - 09:47:48 10° W 09:49:46 15° NW 09:51:44 10° NNW night (unlit)
22 Sep - 00:49:43 10° NW 00:53:04 89° SW 00:56:29 10° SE daylight
22 Sep - 02:28:33 10° SW 02:30:13 13° SSW 02:31:54 10° S daylight
22 Sep - 07:21:26 10° SSW 07:24:22 26° SE 07:27:16 10° E visible
22 Sep - 08:58:05 10° WSW 09:01:02 28° NW 09:03:57 10° N visible
23 Sep - 00:00:59 10° NNW 00:04:12 44° NE 00:07:28 10° ESE daylight
23 Sep - 01:38:34 10° WSW 01:41:04 19° SSW 01:43:36 10° SSE daylight
23 Sep - 06:32:56 10° SSW 06:35:15 17° SSE 06:37:34 10° ESE visible
23 Sep - 08:08:52 10° SW 08:12:12 55° NW 08:15:30 10° NNE visible
23 Sep - 23:12:39 10° N 23:15:22 23° NE 23:18:06 10° ESE daylight
24 Sep - 00:48:56 10° W 00:51:57 30° SW 00:55:00 10° SSE daylight
24 Sep - 05:44:43 10° S 05:46:02 12° SSE 05:47:21 10° SE daylight
24 Sep - 07:19:51 10° SW 07:23:15 74° SE 07:26:37 10° NE visible
24 Sep - 22:25:10 10° NNE 22:26:33 12° NE 22:27:57 10° ENE daylight
24 Sep - 23:59:35 10° WNW 00:02:53 53° SW 00:06:13 10° SE daylight
25 Sep - 06:30:59 10° SSW 06:34:13 38° SE 06:37:24 10° ENE visible
25 Sep - 08:08:24 10° W 08:10:40 17° NW 08:12:55 10° N visible
25 Sep - 23:10:29 10° NW 23:13:50 79° NE 23:17:14 10° SE daylight
26 Sep - 00:49:02 10° WSW 00:50:55 14° SSW 00:52:49 10° S daylight
26 Sep - 05:42:14 10° SSW 05:45:03 23° SSE 05:47:50 10° E daylight
26 Sep - 07:18:43 10° WSW 07:21:46 32° NW 07:24:48 10° NNE visible
26 Sep - 22:21:42 10° NNW 22:24:50 38° NE 22:28:01 10° ESE daylight
26 Sep - 23:59:00 10° W 00:01:38 21° SSW 00:04:17 10° SSE daylight
27 Sep - 04:53:38 10° S 04:55:46 16° SSE 04:57:54 10° ESE daylight
27 Sep - 06:29:24 10° SW 06:32:46 65° NW 06:36:06 10° NE visible
27 Sep - 21:33:21 10° N 21:35:52 20° NE 21:38:24 10° E daylight
27 Sep - 23:09:17 10° WNW 23:12:23 33° SW 23:15:31 10° SSE daylight
28 Sep - 04:05:29 10° S 04:06:23 11° SSE 04:07:18 10° SE daylight
28 Sep - 05:40:17 10° SW 05:43:40 63° SE 05:47:00 10° ENE daylight
28 Sep - 07:19:34 10° WNW 07:19:55 10° NW 07:20:16 10° NW visible
28 Sep - 20:46:27 10° NE 20:46:55 10° NE 20:47:23 10° ENE daylight
28 Sep - 22:19:51 10° WNW 22:23:11 62° SW 22:26:33 10° SE daylight
28 Sep - 23:59:36 10° SW 00:00:27 11° SSW 00:01:19 10° S daylight
29 Sep - 04:51:19 10° SSW 04:54:27 34° SE 04:57:33 10° ENE daylight
29 Sep - 06:28:27 10° W 06:30:58 20° NW 06:33:27 10° N visible
29 Sep - 21:30:41 10° NW 21:34:00 66° NE 21:37:22 10° SE daylight
29 Sep - 23:08:54 10° WSW 23:11:00 15° SSW 23:13:07 10° S daylight
